Regional Weather Roundup
Issued by NWS

Home | Current Version | Previous Version | Text Only | Print | Product List | Glossary On
Versions: 1 2 3 4 5 6 7 8 9 10 11 12 13 14 15 16 17 18 19 20 21 22 23 24 25 26 27 28 29 30 31 32 33 34 35 36 37 38 39 40 41 42 43 44 45 46 47 48 49 50
705
ASUS43 KMKX 082221
RWRWI

WISCONSIN REGIONAL WEATHER ROUNDUP
NATIONAL WEATHER SERVICE MILWAUKEE/SULLIVAN WI
400 PM CST THU DEC 08 2016

NOTE: "FAIR" INDICATES FEW OR NO CLOUDS BELOW 12,000 FEET WITH NO
SIGNIFICANT WEATHER AND/OR OBSTRUCTIONS TO VISIBILITY.

WIZ001-002-006>008-014>016-023>028-082300-
NORTHWEST WISCONSIN

CITY           SKY/WX    TMP DP  RH WIND       PRES   REMARKS
SUPERIOR ARPT  CLOUDY    26  14  61 W5        30.37R WCI  20
ASHLAND        CLOUDY    24  20  84 W7        30.32R WCI  16
HAYWARD        CLOUDY    23  14  68 NW8G17    30.31R WCI  14
SIREN          CLOUDY    24  15  68 N14G20    30.37R WCI  12
CUMBERLAND     CLOUDY    23  14  68 NW14      30.34R WCI  11
RICE LAKE      CLOUDY    24  15  68 W13       30.36R WCI  12
CHETEK         CLOUDY    24  15  69 NW6       30.35R WCI  17
LADYSMITH      CLOUDY    24  17  72 NW10      30.32R WCI  14
EAU CLAIRE     CLOUDY    25  15  66 NW10      30.35R WCI  15
MENOMONIE      LGT SNOW  25  18  76 W12       30.37R WCI  14
NEW RICHMOND   CLOUDY    23  14  69 NW10      30.39R WCI  12
OSCEOLA        CLOUDY    24  15  70 W12G18    30.43R WCI  13
$$

WIZ003>005-009-010-017-018-082300-
NORTH CENTRAL WISCONSIN

CITY           SKY/WX    TMP DP  RH WIND       PRES   REMARKS
MANITOWISH WTR SNOW      22  22  99 NW15      30.20R VSB 1/2 WCI   9
ARBOR VITAE    LGT SNOW  24  19  81 NW13      30.20R WCI  13
WOODRUFF       LGT SNOW  24  19  81 NW13      30.20R WCI  13
RHINELANDER    MOCLDY    25  17  72 N7        30.19R WCI  17
EAGLE RIVER    MOCLDY    24  17  74 NW9       30.17R WCI  14
LAND O LAKES   PTCLDY    23  19  83 NW9       30.19R WCI  13
PHILLIPS       FLURRIES  23  19  83 W5        30.24R WCI  17
TOMAHAWK       CLOUDY    24  17  73 W9G18     30.23R WCI  15
MEDFORD        FLURRIES  22  15  76 W13G20    30.25R WCI  10
MERRILL        FLURRIES  24  18  77 NW10G17   30.24R WCI  14
$$

WIZ029-030-035-036-043>047-082300-
CENTRAL WISCONSIN

CITY           SKY/WX    TMP DP  RH WIND       PRES   REMARKS
WAUSAU         CLOUDY    24  16  71 W15       30.23R WCI  11
MOSINEE        MOCLDY    25  18  74 W13       30.25R WCI  13
MARSHFIELD     PTCLDY    22  13  68 W12       30.26R WCI  10
STEVENS POINT  CLOUDY    23  13  65 NW10      30.27R WCI  12
WAUPACA        PTCLDY    29  17  61 W16G23    30.26R WCI  17
WAUTOMA        PTCLDY    24  16  71 W16       30.28R WCI  11
WISC RAPIDS    MOCLDY    24  15  68 NW10G20   30.30R WCI  14
CAMP DOUGLAS   FLURRIES  23  18  80 W10       30.32R WCI  12
$$

WIZ011>013-019>022-031-037>040-048>050-082300-
NORTHEAST WISCONSIN

CITY           SKY/WX    TMP DP  RH WIND       PRES   REMARKS
ANTIGO         CLOUDY    24  17  73 W16       30.19R WCI  11
SHAWANO        MOCLDY    31  17  58 W12G18    30.22R WCI  21
OCONTO         CLOUDY    28  25  90 NW5       30.19R VSB 1/2 WCI  22
STURGEON BAY   CLOUDY    31  22  69 W16G23    30.17R WCI  20
GREEN BAY      CLOUDY    31  19  61 W20G25    30.21R WCI  19
MANITOWOC      CLOUDY    29  18  63 W17       30.21R WCI  17
APPLETON       MOCLDY    27  16  63 W18       30.21R WCI  13
CLINTONVILLE   MOCLDY    30  18  59 W12G21    30.23R WCI  21
OSHKOSH        CLEAR     26  16  65 W12G24    30.24R WCI  16
$$

WIZ032>034-041-042-053>061-082300-
SOUTHWEST WISCONSIN

CITY           SKY/WX    TMP DP  RH WIND       PRES   REMARKS
LA CROSSE      CLOUDY    27  17  66 NW15      30.38R WCI  15
SPARTA         FLURRIES  25  17  73 W8        30.35R WCI  16
VIROQUA        CLOUDY    22  17  79 NW13      30.33R WCI  10
BOSCOBEL       CLOUDY    25  15  66 W8        30.40R WCI  16
PRAIRIE DU CHI FLURRIES  24  14  65 W14       30.40R WCI  12
PLATTEVILLE    CLOUDY    23  18  81 W13       30.37R WCI  11
$$

WIZ056-057-062-063-064-067-068-082300-
SOUTH CENTRAL WISCONSIN

CITY           SKY/WX    TMP DP  RH WIND       PRES   REMARKS
REEDSBURG      FLURRIES  23  16  74 NW12      30.33R WCI  12
BARABOO/DELLS  FLURRIES  23  15  73 W10       30.32R WCI  12
LONE ROCK      CLOUDY    24  15  68 W14       30.37R WCI  12
MINERAL POINT  FLURRIES  25  19  80 W14G20    30.33R WCI  13
MADISON        FLURRIES  23  16  74 W7        30.33R WCI  15
MIDDLETON      CLOUDY    24  19  78 W12       30.33R WCI  13
WATERTOWN      CLOUDY    24  17  77 W14       30.30R WCI  11
MONROE         FLURRIES  23  18  80 W16       30.33R WCI  10
JANESVILLE     CLOUDY    25  18  74 W9G17     30.33R WCI  15
$$

WIZ051-052-058>065-066-070>072-082300-
SOUTHEAST WISCONSIN

CITY           SKY/WX    TMP DP  RH WIND       PRES   REMARKS
MILWAUKEE      FLURRIES  26  15  63 NW18G29   30.28R WCI  13
WAUKESHA       CLOUDY    21  16  79 W20G29    30.29R WCI   6
MILWAUKEE/TIMM CLOUDY    25  14  63 NW18G26   30.28R WCI  11
RACINE         CLOUDY    25  14  63 W16G25    30.30R WCI  12
BURLINGTON     CLOUDY    28  21  74 W23G30    30.31R WCI  14
KENOSHA        CLOUDY    24  15  68 W17G24    30.30R WCI  11
FOND DU LAC    CLEAR     26  15  63 W13       30.25R WCI  15
SHEBOYGAN      CLEAR     26  17  68 W20       30.23R WCI  12
WEST BEND        N/A    N/A N/A N/A W15       30.25
JUNEAU         CLOUDY    23  16  74 W8G16     30.29R WCI  14
$$

LSZ147-162-082300-
LAKE SUPERIOR

STATION/POSITION TIME  TEMP    WIND        PRES    WAVE
                       AIR SEA DIR/SP/G            HT/PER
                 (UTC) (F)     (DEG/KT/KT) (MB)    (FT/S)
DEVILS ISLAND    2200   26     320/ 26/ 31 1027.3R
PORT WING        2130   27     300/ 15/ 19 1027.1R
SAXON HARBOR     2141   29     310/ 18/ 25 1025.1R
$$

LMZ867-665-643>646-082300-
LAKE MICHIGAN

STATION/POSITION TIME  TEMP    WIND        PRES    WAVE
                       AIR SEA DIR/SP/G            HT/PER
                 (UTC) (F)     (DEG/KT/KT) (MB)    (FT/S)
CHAMBERS ISLAND  2130   33     300/ 12/ 20 1020.7R
NORTHPORT PIER   2200   33     330/ 17/ 26 1020.7
SISTER BAY       2150   33     350/ 23/ 28   N/A
ALGOMA LAKESHORE 2121          310/ 12/ 19   N/A
KEWAUNEE LAKESHO 2154   30     290/ 15/ 22 1021.3R
SHEBOYGAN LAKESH 2200   27     280/ 16/ 19 1024.2R
PORT WASHINGTON  2130   26     270/ 12/ 20 1025.4R
MILWAUKEE LAKESH 2200   26     290/ 16/ 21   N/A
KENOSHA   LAKESH 2200   25     280/ 16/ 24 1025.7
$$

TC  - TEMPERATURE IN CELSIUS
VSB - VISIBILITY IN STATUTE MILES
WCI - WIND CHILL INDEX
HX  - HEAT INDEX





USA.gov is the U.S. government's official web portal to all federal, state and local government web resources and services.